User: anonymous   Login
Location: Unspecified
(0.0000°N, 0.0000°E)
Time: 02:51:55
(UTC+00:00)
Language:

LISHUI 1-01 - Orbit

View from above orbital plane
View from above orbital plane
View from above satellite
View from above satellite

Ground track
Ground track

The orbit data is extracted from the following two-line orbital elements,

1 41845U 16066E   17232.83905719  .00000181  00000-0  37216-4 0  9991
2 41845  98.7765 250.0100 0367599  56.5037 307.0709 14.37776353 40780
Epoch (UTC): 20 August 2017 20:08:14
Eccentricity: 0.0367599
inclination: 98.7765°
perigee height: 503 km
apogee height: 1028 km
right ascension of ascending node: 250.0100°
argument of perigee: 56.5037°
revolutions per day: 14.37776353
mean anomaly at epoch: 307.0709°
orbit number at epoch: 4078

The dashed part of the orbit path shows where the satellite is in the earth's shadow,  

DLR